Home   Weather   Burnaby   Past weeks

Flag for Canada Past Weather in Burnaby, British Columbia, Canada — Yesterday and Last 2 Weeks

Now
41 °F

Broken clouds.


Feels Like: 41 °F
Forecast: 39 / 48 °F
Wind: 2 mph from Southwest

Location: Vancouver International Airport

Current Time: Jan 20, 2017 at 12:28:20 pm

Latest Report: Jan 20, 2017 at 11:00 am


Visibility: 30 mi

Pressure: 29.20 "Hg

Humidity: 87%

Dew Point: 37 °F

Location of BurnabyLocation

Past Weather in Burnaby — Graph

°F

Burnaby Temperature Yesterday

Maximum temperature yesterday: 46 °F (at 9:33 am)
Minimum temperature yesterday: 43 °F (at 9:00 pm)
Average temperature yesterday: 45 °F

High & Low Weather Summary for the Past Weeks

 TemperatureHumidityPressure
High52 °F (Jan 18, 1:00 pm)100% (Jan 8, 5:00 pm)30.49 "Hg (Jan 8, 5:00 pm)
Low19 °F (Jan 12, 4:00 am)43% (Jan 10, 11:00 pm)29.20 "Hg (Jan 20, 11:00 am)
Average36 °F82%29.84 "Hg
* Reported Jan 5 11:00 am — Jan 20 11:00 am, Burnaby, Weather by CustomWeather, © 2017

Note: Actual official high and low records may vary slightly from our data, if they occured in-between our weather recording intervals... More about our weather records

Advertising

Burnaby Weather History for the Previous 24 Hours

Scroll right to see more
 ConditionsComfort  
Time TempWeatherWind HumidityBarometerVisibility
11:00 am
Fri, Jan 20
41 °FBroken clouds.2 mph87%29.20 "Hg30 mi
10:00 am39 °FBroken clouds.6 mph93%29.21 "Hg30 mi
9:00 am37 °FBroken clouds.No wind93%29.22 "Hg30 mi
8:25 am36 °FBroken clouds.3 mph100%29.23 "Hg30 mi
8:00 am37 °FBroken clouds.6 mph93%29.23 "Hg30 mi
7:08 am36 °FPassing clouds.7 mph93%29.23 "Hg20 mi
7:00 am39 °FPassing clouds.5 mph87%29.24 "Hg20 mi
6:00 am41 °FPassing clouds.7 mph87%29.26 "Hg20 mi
5:00 am43 °FPassing clouds.12 mph81%29.29 "Hg20 mi
4:00 am43 °FPassing clouds.9 mph81%29.33 "Hg20 mi
3:00 am43 °FPassing clouds.8 mph87%29.35 "Hg20 mi
2:00 am43 °FPartly cloudy.13 mph87%29.38 "Hg15 mi
1:42 am43 °FMostly cloudy.14 mph87%29.39 "Hg15 mi
1:00 am43 °FLight rain. Mostly cloudy.16 mph93%29.40 "Hg15 mi
12:13 am43 °FLight rain. Mostly cloudy.13 mph93%29.41 "Hg15 mi
12:00 am43 °FMostly cloudy.12 mph93%29.41 "Hg15 mi
11:00 pm
Thu, Jan 19
43 °FMostly cloudy.12 mph93%29.43 "Hg15 mi
10:00 pm43 °FMostly cloudy.9 mph93%29.43 "Hg15 mi
9:00 pm43 °FMostly cloudy.12 mph93%29.43 "Hg15 mi
8:00 pm45 °FOvercast.13 mph93%29.43 "Hg15 mi
7:33 pm45 °FOvercast.9 mph93%29.43 "Hg15 mi
7:00 pm45 °FOvercast.10 mph93%29.44 "Hg12 mi
6:00 pm45 °FLight rain. Mostly cloudy.10 mph93%29.44 "Hg15 mi
5:00 pm45 °FLight rain. Mostly cloudy.7 mph93%29.44 "Hg8 mi
4:00 pm46 °FLight rain. Mostly cloudy.13 mph87%29.44 "Hg15 mi
3:31 pm46 °FLight rain. Mostly cloudy.12 mph87%29.44 "Hg15 mi
3:00 pm46 °FCloudy.12 mph87%29.43 "Hg15 mi
2:00 pm46 °FCloudy.9 mph87%29.43 "Hg15 mi
1:00 pm46 °FMostly cloudy.9 mph87%29.44 "Hg15 mi
12:30 pm46 °FMostly cloudy.9 mph87%29.45 "Hg15 mi
12:00 pm46 °FLight rain. Cloudy.9 mph93%29.45 "Hg15 mi
Weather by CustomWeather, © 2017

See weather overviewHow to use our weather pages